#timestamp,LO_Frequency,Hit,StdDev 
1551139215.3,286046993.8,N
1551139235.1,286046991.8,Y
1551139255.8,286046994.9,P
1551139275.7,286046997.2,N
1551139295.5,286046995.0,P
1551139315.4,286046995.8,Y
1551139335.2,286047001.1,P
1551139355.0,286047000.3,N
1551139355.9,286047000.3,N
1551139375.8,286047001.8,N
1551139395.6,286047002.6,N
1551139415.5,286047002.6,N
1551139435.3,286047002.0,N
1551139455.1,286047003.2,N
1551139475.9,286047003.8,N
1551139495.7,286047000.0,N
1551139515.5,286047000.4,N
1551139535.4,286046998.3,N
1551139555.2,286046997.3,N
1551139575.1,286046997.8,N
1551139576.0,286046997.8,N
1551139595.8,286046997.9,N
1551139615.6,286046999.6,N
1551139635.5,286046999.6,N
1551139655.3,286046999.1,N
1551139675.1,286046996.8,N
1551139695.9,286046996.6,N
1551139715.7,286046996.7,N
1551139735.6,286046997.8,N
1551139755.4,286046995.8,N
1551139775.2,286046998.0,N
1551139795.1,286046999.3,N
1551139796.0,286046999.3,N
1551139815.8,286046999.5,N
1551139835.6,286046997.4,N
1551139855.5,286046995.0,N
1551139875.3,286046999.6,N
1551139895.2,286046999.6,N
1551139915.9,286046997.6,N
1551139935.7,286046995.5,N
1551139955.6,286046995.1,N
1551139975.4,286046996.6,N
1551139995.3,286046999.5,N
1551140015.1,286046996.9,N
1551140016.0,286046996.9,N
1551140035.8,286046997.7,N
1551140055.7,286046998.0,N
1551140075.5,286046996.4,N
1551140095.4,286046994.8,Y
1551140115.2,286046995.5,P
1551140135.0,286046996.1,P
1551140135.9,286046996.1,P
1551140155.8,286046996.4,Y
1551140175.6,286046998.8,P
1551140195.5,286046998.6,N
1551140215.3,286046996.6,P
1551140235.1,286046996.8,N
1551140255.9,286046994.9,Y
1551140275.7,286046996.7,P
1551140295.5,286047001.2,P
1551140315.4,286047000.9,N
1551140335.2,286047001.2,N
1551140355.1,286046998.6,N
1551140356.0,286046998.6,N
1551140375.8,286047000.8,N
1551140395.6,286046999.3,N
1551140415.5,286046999.6,N
1551140435.3,286046998.8,N
1551140455.1,286046998.5,N
1551140475.9,286047000.7,N
1551140495.7,286047000.1,N
1551140515.6,286046998.2,N
1551140535.4,286046996.6,N
1551140555.2,286046999.4,N
1551140605.1,286046999.3,E
1551140615.9,286047000.8,N
1551140635.7,286047001.2,P
1551140655.6,286046999.4,P
1551140675.4,286046999.5,N
1551140695.3,286047001.1,N
1551140715.1,286047000.8,N
1551140716.0,286047000.8,N
1551140735.8,286046999.7,N
1551140755.7,286047001.5,N
1551140775.5,286047001.5,N
1551140795.3,286047002.6,Y
1551140815.2,286047000.2,P
1551140835.0,286047002.6,P
1551140835.9,286047002.6,N
1551140855.8,286047000.6,N
1551140875.6,286046998.1,N
1551140895.4,286046999.4,N
1551140915.3,286046996.5,N
1551140935.1,286046998.0,N
1551140955.8,286046995.1,N
1551140975.7,286046997.8,N
1551140995.5,286046997.8,N
1551141015.4,286046995.3,N
1551141035.2,286046995.4,N
1551141055.0,286046995.9,N
1551141055.9,286046995.9,N
1551141075.8,286046994.4,N
1551141095.6,286046994.3,N
1551141115.5,286046993.7,N
1551141135.3,286046995.8,N
1551141155.1,286046995.7,N
1551141175.9,286046998.0,N
1551141195.7,286046995.7,N
1551141215.6,286046995.5,N
1551141235.4,286046993.9,N
1551141255.2,286046994.5,N
1551141275.1,286046994.3,N
1551141276.0,286046994.3,N
1551141295.8,286046994.6,N
1551141315.6,286046994.0,N
1551141335.5,286046993.6,N
1551141355.3,286046996.3,N
1551141375.2,286046995.4,N
1551141395.9,286046997.6,N
1551141415.7,286046995.2,N
1551141435.6,286046994.9,Y
1551141455.6,286047002.5,P
1551141475.4,286047002.5,N
1551141495.3,286047002.6,N
1551141515.1,286047002.7,N
1551141535.8,286046999.8,N
1551141555.7,286047002.2,N
1551141575.5,286047001.9,N
1551141595.4,286047002.5,N
1551141615.2,286047004.4,N
1551141635.0,286047004.2,N
1551141635.9,286047004.2,N
1551141655.8,286047003.5,N
1551141675.6,286047003.0,N
1551141695.4,286047003.6,N
1551141715.3,286047003.4,N
1551141735.1,286047005.9,N
1551141755.9,286047003.6,N
1551141775.7,286047002.9,N
1551141795.5,286047003.8,N
1551141815.4,286047003.9,N
1551141835.2,286047002.9,N
1551141855.0,286047003.8,N
1551141855.9,286047003.8,N
1551141875.8,286047004.0,N
1551141895.6,286047004.3,N
1551141915.5,286047001.4,N
1551141935.3,286047001.5,N
1551141955.1,286047002.0,N
1551141975.9,286047001.9,N
1551141995.7,286047003.8,N
1551142015.5,286047003.4,N
1551142035.4,286047003.1,N
1551142055.2,286047003.2,N
1551142075.1,286047004.1,Y
1551142076.0,286047004.1,P
1551142095.8,286047000.3,N
1551142115.6,286047002.4,N
1551142135.5,286047002.3,N
1551142155.3,286047001.6,N
1551142175.1,286047002.4,N
1551142195.9,286047002.2,N
1551142215.7,286047001.9,N
1551142235.6,286047001.7,N
1551142255.4,286047001.8,N
1551142275.2,286047002.5,N
1551142295.1,286046999.7,N
1551142296.0,286046999.7,N
1551142315.8,286047001.6,N
1551142335.7,286047000.0,N
1551142355.5,286047002.7,N
1551142375.3,286047000.4,N
1551142395.2,286046999.8,N
1551142415.9,286047000.1,N
1551142435.7,286047000.2,N
1551142455.6,286047002.2,N
1551142475.4,286047002.3,N
1551142495.3,286047000.3,N
1551142515.1,286047002.4,N
1551142516.0,286047002.4,N
1551142535.8,286047002.6,N
1551142555.7,286047004.3,Y
1551142575.5,286047000.3,P
1551142595.3,286046998.6,N
1551142615.2,286047000.2,N
1551142635.0,286046999.7,N
1551142635.9,286046999.7,N
1551142655.8,286047001.2,N
1551142675.6,286047002.8,N
1551142695.4,286047001.3,N
1551142715.3,286047004.4,Y
1551142735.1,286047003.4,P
1551142755.9,286047003.0,N
1551142775.7,286047004.0,P
1551142795.5,286047002.4,N
